KG6SIB Weather Reports


Display with metric or nautical units.
time (UTC)temp
F
wind
direction
speed
MPH
gust
MPH
rain 1hr
in
rain 24hr
in
rain mn
in
humidity
%
barometer
mb
20170725043636 63 172 0.0 2.0 0.00 0.15 0.15 89 1014.1
20170725043133 63 126 0.0 3.0 0.00 0.15 0.15 88 1014.1
20170725042633 63 192 2.0 3.0 0.00 0.15 0.15 88 1014.2
20170725042133 63 150 0.0 2.0 0.00 0.15 0.15 88 1014.0
20170725041632 63 183 2.0 3.0 0.00 0.15 0.15 88 1013.9
20170725041131 64 239 0.0 3.0 0.00 0.15 0.15 88 1014.2
20170725040631 64 229 0.0 0.0 0.00 0.15 0.15 87 1014.1
20170725040132 64 227 0.0 1.0 0.00 0.15 0.15 87 1013.9
20170725035630 64 181 0.0 2.0 0.00 0.15 0.15 87 1013.5
20170725035131 64 216 1.0 3.0 0.00 0.15 0.15 86 1013.3
20170725034630 64 187 1.0 3.0 0.00 0.15 0.15 86 1013.3
20170725034131 65 229 2.0 3.0 0.00 0.15 0.15 86 1013.6
20170725033632 65 210 1.0 3.0 0.00 0.15 0.15 85 1013.6
20170725033134 65 160 1.0 3.0 0.00 0.15 0.15 84 1013.6
20170725032631 65 159 1.0 2.0 0.00 0.15 0.15 84 1013.5
20170725032129 66 169 0.0 4.0 0.00 0.15 0.15 84 1013.5
20170725031629 66 237 2.0 4.0 0.00 0.15 0.15 83 1013.3
20170725030645 67 185 2.0 3.0 0.00 0.15 0.15 82 1013.5
20170725030145 67 166 1.0 3.0 0.00 0.15 0.15 81 1013.4
20170725025644 67 122 1.0 3.0 0.00 0.15 0.15 81 1013.4
20170725025145 68 203 0.0 4.0 0.00 0.15 0.15 80 1013.3
20170725024644 68 213 2.0 5.0 0.00 0.15 0.15 80 1013.3
20170725024144 68 204 3.0 5.0 0.00 0.15 0.15 79 1013.1
20170725023643 69 200 3.0 5.0 0.00 0.15 0.15 78 1013.4
20170725023143 69 194 2.0 5.0 0.00 0.15 0.15 77 1013.4
20170725022644 70 240 4.0 5.0 0.00 0.15 0.15 76 1013.3
20170725022144 70 230 5.0 5.0 0.00 0.15 0.15 75 1013.2
20170725021644 71 221 3.0 5.0 0.00 0.15 0.15 74 1013.4
20170725021144 71 261 1.0 5.0 0.00 0.15 0.15 74 1013.4
20170725020644 72 252 1.0 4.0 0.00 0.15 0.15 73 1013.3
20170725020143 72 221 3.0 6.0 0.00 0.15 0.15 73 1013.3
20170725015642 72 240 4.0 6.0 0.00 0.15 0.15 71 1013.5
20170725015144 72 192 3.0 6.0 0.00 0.15 0.15 72 1013.5
20170725014643 72 230 2.0 8.0 0.00 0.15 0.15 72 1013.4
20170725014144 73 236 4.0 8.0 0.00 0.15 0.15 71 1013.4
20170725013643 73 253 5.0 8.0 0.00 0.15 0.15 71 1013.4
20170725013142 73 233 6.0 7.0 0.00 0.15 0.15 69 1013.4
20170725012641 73 291 3.0 9.0 0.00 0.15 0.15 70 1013.4
20170725012141 73 300 3.0 9.0 0.00 0.15 0.15 69 1013.3
20170725011642 74 276 6.0 8.0 0.00 0.15 0.15 67 1013.5
20170725011142 75 268 4.0 8.0 0.00 0.15 0.15 67 1013.6
20170725010641 75 234 2.0 8.0 0.00 0.15 0.15 67 1013.5
20170725010140 75 246 5.0 8.0 0.00 0.15 0.15 66 1013.5
20170725005640 76 285 3.0 8.0 0.00 0.15 0.15 66 1013.5
20170725005141 76 229 7.0 8.0 0.00 0.15 0.15 65 1013.5
20170725004640 76 293 4.0 8.0 0.00 0.15 0.15 65 1013.5
20170725004140 77 295 6.0 7.0 0.00 0.15 0.15 64 1013.5
20170725003640 77 223 3.0 8.0 0.00 0.15 0.15 64 1013.4
20170725003143 76 206 3.0 9.0 0.00 0.15 0.15 65 1013.4
20170725002639 77 279 7.0 9.0 0.00 0.15 0.15 65 1013.3
20170725002140 77 269 4.0 9.0 0.00 0.15 0.15 63 1013.3
20170725001639 77 251 5.0 9.0 0.00 0.15 0.15 64 1013.3
20170725001140 77 253 5.0 13.0 0.00 0.15 0.15 63 1013.3
20170725000639 77 278 2.0 13.0 0.00 0.15 0.15 63 1013.2
20170725000139 78 211 4.0 9.0 0.00 0.15 0.15 62 1013.4
20170724235639 78 239 3.0 9.0 0.00 0.15 0.15 62 1013.9
20170724235139 78 282 3.0 9.0 0.00 0.15 0.15 61 1013.9
20170724234638 78 266 7.0 10.0 0.00 0.15 0.15 61 1013.9
20170724234139 78 240 5.0 10.0 0.00 0.15 0.15 61 1013.9
20170724233638 79 307 3.0 9.0 0.00 0.15 0.15 61 1013.9
20170724233141 79 284 5.0 10.0 0.00 0.15 0.15 60 1013.9
20170724232638 79 269 3.0 11.0 0.00 0.15 0.15 60 1013.9
20170724232137 79 272 6.0 11.0 0.00 0.15 0.15 60 1013.9
20170724231638 79 299 6.0 10.0 0.00 0.15 0.15 59 1013.9
20170724230640 80 243 4.0 10.0 0.00 0.15 0.15 58 1014.1
20170724230139 80 276 6.0 11.0 0.00 0.15 0.15 59 1014.2
20170724225639 80 274 5.0 11.0 0.00 0.15 0.15 58 1014.0
20170724225140 80 225 7.0 10.0 0.00 0.15 0.15 58 1014.1
20170724224639 79 308 3.0 11.0 0.00 0.15 0.15 59 1014.1
20170724224139 79 287 3.0 11.0 0.00 0.15 0.15 58 1014.2
20170724223639 79 262 6.0 9.0 0.00 0.15 0.15 58 1014.3
20170724223139 80 253 9.0 10.0 0.00 0.15 0.15 57 1014.3
20170724222640 80 283 5.0 10.0 0.00 0.15 0.15 57 1014.3
20170724222138 79 299 5.0 10.0 0.00 0.15 0.15 56 1014.3
20170724221637 80 281 4.0 9.0 0.00 0.15 0.15 56 1014.3
20170724221137 80 288 5.0 10.0 0.00 0.15 0.15 55 1014.4
20170724220638 80 255 6.0 10.0 0.00 0.15 0.15 54 1014.2
20170724220138 81 279 8.0 12.0 0.00 0.15 0.15 54 1014.5
20170724215638 80 293 5.0 12.0 0.00 0.15 0.15 54 1013.9
20170724215140 80 295 4.0 10.0 0.00 0.15 0.15 54 1014.1
20170724214637 80 293 3.0 10.0 0.00 0.15 0.15 54 1014.1
20170724214137 80 272 5.0 10.0 0.00 0.15 0.15 55 1014.4
20170724213638 80 299 3.0 10.0 0.00 0.15 0.15 54 1014.2
20170724213137 79 263 6.0 9.0 0.00 0.15 0.15 56 1014.2
20170724212637 79 271 8.0 12.0 0.00 0.15 0.15 56 1014.4
20170724212137 80 266 6.0 12.0 0.00 0.15 0.15 55 1014.5
20170724211637 79 236 7.0 10.0 0.00 0.15 0.15 57 1014.5
20170724211136 80 284 4.0 10.0 0.00 0.15 0.15 56 1014.5
20170724210636 80 300 4.0 10.0 0.00 0.15 0.15 56 1014.5
20170724210136 79 299 5.0 10.0 0.00 0.15 0.15 55 1014.4
20170724205636 79 283 6.0 10.0 0.00 0.15 0.15 55 1014.5
20170724205136 80 295 4.0 9.0 0.00 0.15 0.15 56 1014.8
20170724204636 79 270 8.0 9.0 0.00 0.15 0.15 57 1014.6
20170724204136 79 257 4.0 9.0 0.00 0.15 0.15 56 1014.6
20170724203636 79 243 4.0 7.0 0.00 0.15 0.15 56 1014.6
20170724203135 80 254 5.0 7.0 0.00 0.15 0.15 55 1015.0
20170724202635 79 221 4.0 10.0 0.00 0.15 0.15 56 1014.7
20170724202136 78 210 4.0 10.0 0.00 0.15 0.15 57 1014.7
20170724201634 78 295 6.0 10.0 0.00 0.15 0.15 57 1014.8
20170724201135 79 245 8.0 10.0 0.00 0.15 0.15 54 1014.9
20170724200635 78 307 7.0 9.0 0.00 0.15 0.15 55 1014.9
20170724200134 78 265 6.0 8.0 0.00 0.15 0.15 55 1014.9
20170724195635 78 189 6.0 11.0 0.00 0.15 0.15 59 1014.8
20170724195134 78 263 5.0 11.0 0.00 0.15 0.15 60 1014.9
20170724194634 78 215 3.0 9.0 0.00 0.15 0.15 60 1014.9
20170724194134 78 259 5.0 7.0 0.00 0.15 0.15 62 1015.0
20170724193633 78 229 1.0 8.0 0.00 0.15 0.15 63 1015.1
20170724193135 78 270 4.0 8.0 0.00 0.15 0.15 63 1015.1
20170724192634 77 230 5.0 11.0 0.00 0.15 0.15 68 1015.3
20170724192133 77 231 7.0 11.0 0.00 0.15 0.15 68 1015.3
20170724191633 76 279 5.0 8.0 0.00 0.15 0.15 67 1015.0
20170724190645 76 192 4.0 9.0 0.00 0.15 0.15 68 1015.0
20170724190145 76 218 2.0 9.0 0.00 0.15 0.15 65 1014.9
20170724185645 75 250 4.0 11.0 0.00 0.15 0.15 68 1015.0
20170724185145 75 261 6.0 11.0 0.00 0.15 0.15 67 1015.1
20170724184645 74 221 3.0 10.0 0.00 0.15 0.15 70 1014.9
20170724184144 74 239 6.0 9.0 0.00 0.15 0.15 68 1014.9
20170724183644 74 217 5.0 9.0 0.00 0.15 0.15 69 1014.7
20170724183144 74 266 5.0 9.0 0.00 0.15 0.15 70 1014.8
20170724182644 74 222 6.0 10.0 0.00 0.15 0.15 69 1014.7
20170724182143 74 214 7.0 10.0 0.00 0.15 0.15 71 1014.9
20170724181643 74 206 7.0 8.0 0.00 0.15 0.15 72 1014.9
20170724181142 74 202 4.0 8.0 0.00 0.15 0.15 72 1014.9
20170724180643 74 231 5.0 8.0 0.00 0.15 0.15 74 1014.9
20170724180142 74 207 2.0 7.0 0.00 0.15 0.15 76 1014.9
20170724175643 73 278 6.0 7.0 0.00 0.15 0.15 74 1014.9
20170724175142 72 158 1.0 6.0 0.00 0.15 0.15 79 1014.8
20170724174642 72 187 4.0 6.0 0.00 0.15 0.15 78 1014.8
20170724174142 71 195 2.0 6.0 0.00 0.15 0.15 80 1014.9
20170724173643 70 280 4.0 6.0 0.00 0.15 0.15 77 1014.6
20170724173143 70 207 2.0 8.0 0.00 0.15 0.15 79 1014.6
20170724172641 69 225 4.0 8.0 0.00 0.15 0.15 80 1014.6
20170724172141 70 259 6.0 6.0 0.00 0.15 0.15 83 1014.7
20170724171642 70 193 1.0 2.0 0.00 0.15 0.15 80 1014.6
20170724171141 70 167 0.0 2.0 0.00 0.15 0.15 82 1014.7
20170724170643 70 208 0.0 2.0 0.00 0.15 0.15 82 1014.7
20170724170141 70 217 0.0 2.0 0.00 0.15 0.15 83 1014.7
20170724165641 70 203 2.0 2.0 0.00 0.15 0.15 80 1014.3
20170724165141 70 212 0.0 0.0 0.00 0.15 0.15 83 1014.4
20170724164641 69 249 0.0 0.0 0.00 0.15 0.15 81 1014.3
20170724164141 69 250 0.0 0.0 0.02 0.15 0.15 82 1014.3
20170724163640 68 250 0.0 1.0 0.03 0.15 0.15 82 1014.1
20170724163140 69 213 0.0 2.0 0.04 0.15 0.15 86 1014.4
20170724162641 68 212 0.0 2.0 0.04 0.15 0.15 87 1014.1
20170724162141 68 175 1.0 1.0 0.05 0.15 0.15 87 1014.2
20170724161640 68 252 0.0 1.0 0.06 0.15 0.15 87 1014.0
20170724161139 67 271 0.0 2.0 0.07 0.15 0.15 88 1014.0
20170724160639 67 271 0.0 2.0 0.09 0.15 0.15 88 1014.1
20170724160140 67 261 2.0 2.0 0.12 0.15 0.15 90 1014.0
20170724155639 66 233 1.0 2.0 0.14 0.15 0.15 90 1013.9
20170724155138 66 155 0.0 1.0 0.14 0.15 0.15 90 1014.0
20170724154641 66 221 0.0 1.0 0.15 0.15 0.15 90 1013.9
20170724154138 66 221 0.0 1.0 0.13 0.13 0.13 89 1013.9
20170724153638 66 221 0.0 3.0 0.12 0.12 0.12 89 1014.0
20170724153138 66 221 1.0 3.0 0.11 0.11 0.11 89 1014.0
20170724152638 66 213 2.0 2.0 0.11 0.11 0.11 88 1014.0
20170724152144 66 9 0.0 1.0 0.10 0.10 0.10 88 1014.0
20170724151638 66 6 0.0 3.0 0.09 0.09 0.09 87 1013.9
20170724150653 67 4 1.0 2.0 0.06 0.06 0.06 85 1013.9
20170724150152 67 40 0.0 0.0 0.03 0.03 0.03 85 1013.9
20170724145652 67 40 0.0 1.0 0.01 0.01 0.01 84 1014.1
20170724145152 67 41 0.0 1.0 0.01 0.01 0.01 82 1014.1
20170724144651 68 41 0.0 3.0 0.00 0.00 0.00 79 1014.2
20170724144153 68 41 0.0 3.0 0.00 0.00 0.00 78 1014.3
20170724143653 68 58 1.0 3.0 0.00 0.00 0.00 77 1014.1
20170724143151 68 65 1.0 3.0 0.00 0.00 0.00 76 1014.0
20170724142651 68 50 2.0 2.0 0.00 0.00 0.00 75 1013.9
20170724142151 68 338 0.0 1.0 0.00 0.00 0.00 76 1013.9
20170724141651 68 309 0.0 0.0 0.00 0.00 0.00 76 1013.9
20170724141151 68 309 0.0 0.0 0.00 0.00 0.00 76 1013.8
20170724140650 68 309 0.0 0.0 0.00 0.00 0.00 75 1013.6
20170724140151 68 309 0.0 1.0 0.00 0.00 0.00 75 1013.7
20170724135651 68 309 0.0 1.0 0.00 0.00 0.00 76 1014.3
20170724135150 68 43 0.0 1.0 0.00 0.00 0.00 77 1014.4
20170724134650 68 43 0.0 1.0 0.00 0.00 0.00 77 1014.5
20170724134150 68 72 0.0 2.0 0.00 0.00 0.00 78 1014.4
20170724133649 67 68 0.0 3.0 0.00 0.00 0.00 79 1013.9
20170724133150 67 69 2.0 4.0 0.00 0.00 0.00 79 1013.8
20170724132651 67 49 3.0 4.0 0.00 0.00 0.00 80 1013.8
20170724132150 67 39 3.0 4.0 0.00 0.00 0.00 80 1013.7
20170724131650 66 51 1.0 4.0 0.00 0.00 0.00 81 1013.6
20170724131149 66 53 2.0 4.0 0.00 0.00 0.00 83 1013.6
20170724130649 66 40 3.0 4.0 0.00 0.00 0.00 83 1013.5
20170724130149 66 52 2.0 4.0 0.00 0.00 0.00 83 1013.5
20170724125648 66 72 1.0 4.0 0.00 0.00 0.00 84 1013.9
20170724125148 66 59 3.0 4.0 0.00 0.00 0.00 83 1014.0
20170724124648 67 65 2.0 4.0 0.00 0.00 0.00 82 1014.0
20170724124149 67 52 3.0 4.0 0.00 0.00 0.00 79 1014.1
20170724123649 68 39 2.0 2.0 0.00 0.00 0.00 75 1014.3
20170724123149 69 38 0.0 2.0 0.00 0.00 0.00 74 1014.3
20170724122648 69 39 0.0 2.0 0.00 0.00 0.00 72 1014.4
20170724122148 69 38 1.0 2.0 0.00 0.00 0.00 71 1014.2
20170724121647 69 65 0.0 1.0 0.00 0.00 0.00 70 1014.2
20170724121147 70 59 0.0 1.0 0.00 0.00 0.00 69 1014.5
20170724120648 70 59 0.0 2.0 0.00 0.00 0.00 68 1014.5
20170724120148 70 59 1.0 2.0 0.00 0.00 0.00 67 1014.3
20170724115647 70 59 0.0 3.0 0.00 0.00 0.00 66 1014.5
20170724115148 70 59 0.0 3.0 0.00 0.00 0.00 65 1014.4
20170724114646 70 49 0.0 3.0 0.00 0.00 0.00 65 1014.3
20170724114146 70 50 1.0 4.0 0.00 0.00 0.00 66 1014.3
20170724113647 70 34 2.0 4.0 0.00 0.00 0.00 66 1014.3
20170724113148 70 62 2.0 3.0 0.00 0.00 0.00 66 1014.3
20170724112646 70 62 1.0 4.0 0.00 0.00 0.00 65 1014.3
20170724112147 70 59 2.0 4.0 0.00 0.00 0.00 66 1014.3
20170724111648 70 82 2.0 6.0 0.00 0.00 0.00 65 1014.4
20170724110637 70 66 3.0 7.0 0.00 0.00 0.00 66 1014.4
20170724110136 69 103 4.0 6.0 0.00 0.00 0.00 68 1014.5
20170724105635 68 27 0.0 2.0 0.00 0.00 0.00 65 1014.8
20170724105135 69 42 0.0 1.0 0.00 0.00 0.00 62 1015.0
20170724104635 69 42 0.0 2.0 0.00 0.00 0.00 62 1014.9
20170724104136 69 42 0.0 2.0 0.00 0.00 0.00 61 1014.8
20170724103636 69 23 1.0 3.0 0.00 0.00 0.00 62 1014.7
20170724103136 69 43 1.0 3.0 0.00 0.00 0.00 60 1014.8
20170724102635 69 321 0.0 6.0 0.00 0.00 0.00 63 1014.8
20170724102136 68 71 0.0 6.0 0.00 0.00 0.00 65 1014.8
20170724101634 68 64 3.0 5.0 0.00 0.00 0.00 57 1014.8
20170724101135 67 64 2.0 3.0 0.00 0.00 0.00 60 1014.5
20170724100636 67 39 2.0 4.0 0.00 0.00 0.00 61 1014.6
20170724100134 67 49 2.0 4.0 0.00 0.00 0.00 63 1014.6
20170724095635 67 40 2.0 3.0 0.00 0.00 0.00 63 1014.6
20170724095137 68 50 2.0 3.0 0.00 0.00 0.00 65 1014.9
20170724094633 68 39 2.0 3.0 0.00 0.00 0.00 67 1014.9
20170724094134 68 51 1.0 2.0 0.00 0.00 0.00 69 1014.9
20170724093635 68 51 1.0 2.0 0.00 0.00 0.00 71 1015.1
20170724093133 68 51 1.0 2.0 0.00 0.00 0.00 72 1015.1
20170724092635 68 58 2.0 2.0 0.00 0.00 0.00 72 1015.2
20170724092134 68 53 1.0 2.0 0.00 0.00 0.00 72 1015.1
20170724091634 68 40 1.0 2.0 0.00 0.00 0.00 72 1015.0
20170724091134 68 40 1.0 3.0 0.00 0.00 0.00 72 1015.0
20170724090633 68 40 1.0 3.0 0.00 0.00 0.00 73 1015.0
20170724090132 68 36 3.0 3.0 0.00 0.00 0.00 73 1015.0
20170724085632 68 41 3.0 3.0 0.00 0.00 0.00 73 1015.0
20170724085133 68 50 2.0 2.0 0.00 0.00 0.00 72 1015.0
20170724084633 68 50 1.0 1.0 0.00 0.00 0.00 72 1015.0
20170724084132 68 51 0.0 1.0 0.00 0.00 0.00 72 1015.1
20170724083633 68 51 1.0 2.0 0.00 0.00 0.00 72 1015.2
20170724083131 68 51 1.0 3.0 0.00 0.00 0.00 72 1015.2
20170724082633 68 51 1.0 3.0 0.00 0.00 0.00 72 1015.3
20170724082131 68 49 2.0 2.0 0.00 0.00 0.00 71 1015.3
20170724081632 68 49 2.0 2.0 0.00 0.00 0.00 72 1015.3
20170724081131 68 49 2.0 2.0 0.00 0.00 0.00 71 1015.4
20170724080631 69 50 2.0 2.0 0.00 0.00 0.00 71 1015.6
20170724080132 69 47 0.0 0.0 0.00 0.00 0.00 71 1015.7
20170724075631 69 47 0.0 1.0 0.00 0.00 0.00 71 1015.5
20170724075131 69 47 0.0 1.0 0.00 0.00 0.00 70 1015.4
20170724074630 69 47 0.0 1.0 0.00 0.00 0.00 70 1015.3
20170724074131 69 47 0.0 2.0 0.00 0.00 0.00 70 1015.4
20170724073632 69 47 1.0 3.0 0.00 0.00 0.00 70 1015.5
20170724073131 69 49 2.0 3.0 0.00 0.00 0.00 70 1015.6
20170724072631 69 27 0.0 2.0 0.00 0.00 0.00 70 1015.5
20170724072132 69 27 0.0 2.0 0.00 0.00 0.00 70 1015.5
20170724071631 69 78 1.0 2.0 0.00 0.00 0.00 70 1015.4
20170724070633 69 200 0.0 2.0 0.00 0.00 0.00 70 1015.5
20170724070132 69 200 1.0 2.0 0.00 0.00 0.00 70 1015.4
20170724065632 69 139 1.0 1.0 0.00 0.00 0.00 69 1015.1
20170724065132 69 48 0.0 0.0 0.00 0.00 0.00 69 1015.1
20170724064632 69 48 0.0 2.0 0.00 0.00 0.00 69 1015.1
20170724064132 69 48 0.0 3.0 0.00 0.00 0.00 69 1015.1
20170724063632 69 48 2.0 3.0 0.00 0.00 0.00 69 1015.1
20170724063132 69 51 2.0 4.0 0.00 0.00 0.00 69 1015.1
20170724062632 69 34 2.0 4.0 0.00 0.00 0.00 69 1015.1
20170724062133 69 43 2.0 4.0 0.00 0.00 0.00 69 1015.1
20170724061632 69 34 3.0 3.0 0.00 0.00 0.00 70 1015.2
20170724061131 69 41 2.0 3.0 0.00 0.00 0.00 70 1015.2
20170724060631 69 42 1.0 2.0 0.00 0.00 0.00 70 1015.3
20170724060132 69 42 0.0 1.0 0.00 0.00 0.00 70 1015.3
20170724055633 69 42 0.0 2.0 0.00 0.00 0.00 70 1015.1
20170724055131 69 42 1.0 2.0 0.00 0.00 0.00 70 1015.1
20170724054634 69 42 0.0 2.0 0.00 0.00 0.00 70 1015.1
20170724054131 69 42 0.0 4.0 0.00 0.00 0.00 71 1015.1
20170724053630 68 39 1.0 4.0 0.00 0.00 0.00 71 1014.8
20170724053130 68 43 3.0 4.0 0.00 0.00 0.00 72 1014.8
20170724052630 68 31 3.0 3.0 0.00 0.00 0.00 72 1014.7
20170724052131 68 46 2.0 3.0 0.00 0.00 0.00 73 1014.8
20170724051631 67 37 2.0 3.0 0.00 0.00 0.00 73 1014.7
20170724051129 67 58 2.0 2.0 0.00 0.00 0.00 74 1014.7
20170724050632 67 58 0.0 0.0 0.00 0.00 0.00 74 1014.6
20170724050131 67 58 0.0 0.0 0.00 0.00 0.00 74 1014.5
20170724045629 67 58 0.0 1.0 0.00 0.00 0.00 74 1014.3
20170724045130 67 58 0.0 1.0 0.00 0.00 0.00 74 1014.3
20170724044631 67 58 0.0 2.0 0.00 0.00 0.00 74 1014.2
20170724044132 67 58 0.0 4.0 0.00 0.00 0.00 75 1014.2